#timestamp,LO_Frequency,Hit 
1505638815.4,286047003.6,N
1505638835.3,286046999.9,N
1505638855.1,286046999.1,N
1505638875.8,286046999.2,N
1505638895.7,286046998.9,N
1505638915.5,286046998.1,N
1505638935.3,286046999.8,N
1505638955.2,286046999.9,N
1505638975.9,286047002.2,N
1505638995.7,286047002.5,N
1505639015.5,286046999.0,N
1505639035.4,286047000.8,N
1505639055.2,286046999.5,N
1505639075.0,286046998.8,N
1505639075.9,286046998.8,N
1505639095.8,286046996.0,N
1505639115.6,286046994.8,N
1505639135.5,286046990.1,P
1505639155.3,286046987.2,N
1505639175.1,286046988.4,N
1505639195.8,286046985.4,N
1505639215.7,286046989.8,N
1505639235.5,286046991.6,N
1505639255.3,286046989.1,N
1505639275.2,286046991.0,N
1505639295.9,286046989.8,N
1505639315.7,286046990.5,N
1505639335.6,286046988.7,P
1505639355.4,286046999.8,N
1505639375.2,286047001.2,N
1505639395.1,286046996.5,N
1505639396.0,286046996.5,N
1505639415.8,286046997.9,N
1505639435.6,286047000.9,N
1505639455.5,286046998.8,N
1505639475.3,286047001.1,N
1505639495.1,286047001.0,N
1505639515.9,286047001.1,N
1505639535.7,286047001.2,N
1505639555.5,286046998.4,N
1505639575.3,286046999.6,N
1505639595.2,286046996.1,N
1505639615.0,286046997.8,N
1505639615.9,286046997.8,N
1505639635.7,286047001.0,N
1505639655.6,286046998.2,N
1505639675.4,286047000.9,N
1505639695.2,286047003.9,N
1505639715.1,286047003.5,N
1505639716.0,286047003.5,N
1505639735.8,286046998.8,N
1505639755.6,286046996.9,N
1505639775.5,286047000.7,N
1505639795.3,286047001.2,N
1505639815.1,286046996.8,N
1505639835.9,286046999.4,N
1505639855.7,286047001.0,N
1505639875.5,286047002.8,N
1505639895.3,286046998.6,N
1505639915.2,286046999.9,N
1505639935.0,286047002.4,N
1505639935.9,286047002.4,N
1505639955.7,286046998.9,N
1505639975.6,286046998.9,N
1505639995.4,286046999.2,N
1505640015.2,286047001.7,N
1505640035.1,286047006.0,N
1505640036.0,286047006.0,N
1505640055.8,286047007.4,N
1505640075.6,286047007.1,N
1505640095.5,286047001.3,N
1505640115.3,286047000.5,N
1505640135.1,286047002.2,N
1505640155.9,286047002.6,N
1505640175.7,286047000.1,N
1505640195.5,286047001.8,N
1505640215.4,286047000.5,N
1505640235.2,286046999.7,N
1505640255.0,286047005.5,N
1505640255.9,286047005.5,N
1505640275.8,286047004.7,N
1505640295.6,286047001.8,N
1505640315.4,286047005.4,N
1505640335.2,286047005.2,N
1505640355.1,286047003.6,N
1505640356.0,286047003.6,N
1505640375.8,286047002.2,N
1505640395.6,286047004.9,N
1505640415.5,286047006.7,N
1505640435.3,286047008.4,P
1505640455.2,286047004.4,N
1505640475.9,286047004.2,N
1505640495.7,286047003.6,N
1505640515.6,286047005.8,P
1505640535.4,286047002.6,P
1505640555.2,286047002.7,N
1505640575.1,286047001.2,N
1505640576.0,286047001.2,N
1505640595.8,286046998.7,N
1505640615.6,286046996.8,N
1505640635.5,286046996.2,N
1505640655.3,286046993.5,N
1505640675.1,286046999.4,N
1505640695.8,286046998.7,N
1505640715.7,286046993.7,N
1505640735.5,286046996.9,N
1505640755.3,286046996.9,N
1505640775.2,286046993.4,N
1505640795.9,286046995.8,N
1505640815.7,286046993.3,N
1505640835.6,286046997.6,N
1505640855.4,286046997.6,N
1505640875.2,286046996.0,N
1505640895.1,286046994.1,N
1505640896.0,286046994.1,N
1505640915.8,286046995.8,N
1505640935.6,286046997.9,N
1505640955.5,286046997.3,N
1505640975.3,286046998.3,N
1505640995.1,286046999.5,N
1505641015.8,286046995.1,N
1505641035.7,286046990.2,N
1505641055.5,286046994.0,N
1505641075.3,286046993.3,N
1505641095.2,286046996.0,N
1505641115.9,286046994.6,N
1505641135.7,286046996.4,N
1505641155.6,286046993.7,N
1505641175.4,286046994.3,N
1505641195.2,286046989.1,P
1505641215.1,286046991.0,N
1505641216.0,286046991.0,P
1505641235.8,286046993.2,N
1505641255.7,286046987.4,P
1505641275.5,286046998.3,N
1505641295.3,286046995.0,N
1505641315.1,286046995.9,N
1505641335.9,286046995.2,N
1505641355.7,286046998.0,N
1505641375.5,286046997.5,N
1505641395.4,286046996.5,N
1505641415.2,286046999.6,N
1505641435.0,286046997.7,N
1505641435.9,286046997.7,N
1505641455.8,286046994.8,N
1505641475.6,286046992.1,N
1505641495.4,286046995.0,N
1505641515.3,286047000.7,N
1505641535.1,286046998.5,N
1505641536.0,286046998.5,N
1505641555.8,286046995.8,N
1505641575.7,286046998.0,N
1505641595.5,286046996.9,N
1505641615.3,286046996.9,N
1505641635.1,286046993.8,N
1505641655.9,286046991.1,P
1505641675.7,286046990.3,P
1505641695.5,286046988.5,P
1505641715.4,286046991.7,N
1505641735.2,286046991.7,P
1505641755.1,286047001.1,P
1505641756.0,286047001.1,N
1505641775.8,286046999.2,N
1505641795.6,286046997.9,N
1505641815.4,286046997.8,N
1505641835.3,286047004.4,N
1505641855.1,286047004.0,N
1505641875.8,286046997.6,N
1505641895.7,286046993.9,N
1505641915.5,286046994.6,N
1505641935.3,286046998.0,N
1505641955.2,286046996.2,N
1505641975.0,286046994.7,N
1505641975.9,286046994.7,N
1505641995.7,286046991.7,N
1505642015.6,286046991.7,N
1505642035.4,286046993.3,N
1505642055.2,286046996.2,N
1505642075.1,286046996.2,N
1505642076.0,286046996.2,N
1505642095.8,286046996.2,N
1505642115.6,286046991.7,N
1505642135.5,286046994.8,N
1505642155.3,286046992.2,N
1505642175.1,286046994.2,N
1505642195.9,286046996.3,N
1505642215.7,286046992.7,N
1505642235.5,286046990.8,N
1505642255.3,286046990.9,N
1505642275.2,286046991.3,N
1505642295.0,286046990.1,N
1505642295.9,286046990.1,N
1505642315.7,286046991.1,N
1505642335.6,286046988.5,P
1505642355.4,286046994.2,N
1505642375.3,286046993.6,N
1505642395.1,286046997.3,N
1505642396.0,286046997.3,N
